Retour au catalogue

STARLINK-5965

ActifCommunicationsVLEO
NORAD 56915·PAYLOAD·🇺🇸 United States

Lancé Jun 12, 2023 depuis Cape Canaveral Space Force Station

Loading…

Prochains Passages (prochaines 24 heures)

TLE

FraisSource: CelesTrak SupGP

Époque: Sep 14, 2026, 20:50 UTC

1 56915C 23083AR  26257.86854167  .00011533  00000+0  41784-3 0  2575
2 56915  43.0012  82.2620 0001139 269.4444 357.0489 15.27564916    18

Suivez STARLINK-5965 en temps réel avec AllMySat

Download on the App Store